User: anonymous   Login
Location: Saint-Usage
(47.1052°N, 5.2587°E)
Time: 17:32:02
(UTC+01:00)
Language:

HuskySat-1 - Orbit

View from above orbital plane
View from above orbital plane
View from above satellite
View from above satellite

Ground track
Ground track

The orbit data is extracted from the following two-line orbital elements,

1 45117U 19071G   21337.14275432  .00008826  00000-0  23632-3 0  9993
2 45117  51.6408 295.9712 0009066 176.2897 183.8156 15.38776825103132
Epoch (UTC): 03 December 2021 03:25:33
Eccentricity: 0.0009066
inclination: 51.6408°
perigee height: 443 km
apogee height: 456 km
right ascension of ascending node: 295.9712°
argument of perigee: 176.2897°
revolutions per day: 15.38776825
mean anomaly at epoch: 183.8156°
orbit number at epoch: 10313

The dashed part of the orbit path shows where the satellite is in the earth's shadow,  

DLR